Weather History for Pecs, Hungary

Change the Weather History Date:

Wednesday, December 5, 2012

  Actual Average Record
Temperature  
Mean Temperature 34 °F -  
Max Temperature 37 °F 38 °F - ()
Min Temperature 31 °F 28 °F - ()
Degree Days  
Heating Degree Days 31    
Moisture  
Dew Point 32 °F    
Average Humidity 93    
Maximum Humidity 100    
Minimum Humidity 80    
Precipitation  
Precipitation 0.00 in 0.06 in - ()
Sea Level Pressure  
Sea Level Pressure 29.61 in    
Wind  
Wind Speed 7 mph ()    
Max Wind Speed 16 mph    
Max Gust Speed 28 mph    
Visibility 4.8 miles    
Events Rain , Snow    
T = Trace of Precipitation, MM = Missing Value Source: Averaged Metar Reports

Daily Weather History Graph

Daily Weather History Graph

Search for Another Location

Airport:

Trip Planner

Search our weather history database for the weather conditions in past years. The results will help you decide how hot, cold, wet, or windy it might be!

Date:

Astronomy

Dec. 05, 2012 Rise Set
Actual Time 7:13 AM CET 4:02 PM CET
Civil Twilight 6:39 AM CET 4:36 PM CET
Nautical Twilight 6:01 AM CET 5:13 PM CET
Astronomical Twilight 5:25 AM CET 5:50 PM CET
Moon 10:48 PM CET (12/5) 11:14 AM CET (12/5)
Length of Visible Light 9h 57m
Length of Day
8h 49m
Waning Gibbous, 62% of the Moon is Illuminated
Dec 5
Waning Gibbous
Dec 6
Last Quarter
Dec 13
New
Dec 20
First Quarter
Dec 28
Full

Hourly Weather History & Observations

Time (CET) Temp. Windchill Dew Point Humidity Pressure Visibility Wind Dir Wind Speed Gust Speed Precip Events Conditions
12:45 AM 32.0 °F 28.7 °F 32.0 °F 100% 29.53 in 1.9 mi North 3.5 mph - N/A Rain , Snow Light Rain
1:00 AM 32 °F - 31 °F 96% 29.56 in 2 mi North 2.2 mph - - Snow Light Snow
1:45 AM 32.0 °F 27.5 °F 32.0 °F 100% 29.53 in 1.9 mi West 4.6 mph - N/A Rain , Snow Light Rain
2:45 AM 33.8 °F 27.7 °F 32.0 °F 93% 29.50 in 4.3 mi NNW 6.9 mph - N/A Snow Light Snow
3:45 AM 35.6 °F 27.1 °F 32.0 °F 87% 29.47 in 6.2 mi North 12.7 mph 25.3 mph N/A   Overcast
4:05 AM 35.6 °F 27.5 °F 32.0 °F 87% 29.50 in - NNW 11.5 mph 27.6 mph N/A   Unknown
4:45 AM 35.6 °F 26.2 °F 32.0 °F 87% 29.50 in 6.2 mi North 15.0 mph - N/A   Overcast
5:15 AM 33.8 °F 23.5 °F 32.0 °F 93% 29.50 in 6.2 mi North 16.1 mph - N/A   Overcast
5:45 AM 33.8 °F 24.3 °F 32.0 °F 93% 29.50 in 6.2 mi North 13.8 mph - N/A   Overcast
6:00 AM - - - N/A% - 6.2 mi North 12.7 mph 25.3 mph N/A   Scattered Clouds
6:15 AM 33.8 °F 23.9 °F 32.0 °F 93% 29.53 in 6.2 mi North 15.0 mph - N/A   Overcast
6:45 AM 35.6 °F 29.9 °F 32.0 °F 87% 29.53 in 6.2 mi NNW 6.9 mph - N/A   Overcast
7:00 AM 35 °F - 31 °F 80% 29.57 in 9 mi NNW 6.7 mph - -   Partly Cloudy
7:15 AM 33.8 °F 27.7 °F 32.0 °F 93% 29.56 in 5.0 mi West 6.9 mph - N/A   Overcast
7:45 AM 33.8 °F 27.7 °F 32.0 °F 93% 29.56 in 5.0 mi WNW 6.9 mph - N/A   Overcast
8:15 AM 32.0 °F 25.6 °F 32.0 °F 100% 29.56 in 3.7 mi NW 6.9 mph - N/A   Overcast
8:36 AM 32.0 °F 26.4 °F 32.0 °F 100% 29.62 in 1.2 mi West 5.8 mph - N/A   Overcast
8:45 AM 32.0 °F 27.5 °F 32.0 °F 100% 29.59 in 1.2 mi West 4.6 mph - N/A   Overcast
9:00 AM - - - N/A% - 3.1 mi WNW 9.2 mph - N/A   Mostly Cloudy
9:15 AM 32.0 °F 26.4 °F 32.0 °F 100% 29.59 in 1.2 mi WNW 5.8 mph - N/A   Overcast
9:45 AM 33.8 °F 27.0 °F 32.0 °F 93% 29.59 in 3.7 mi WNW 8.1 mph - N/A   Mostly Cloudy
10:15 AM 33.8 °F 27.0 °F 32.0 °F 93% 29.59 in 3.7 mi WNW 8.1 mph - N/A   Mostly Cloudy
10:45 AM 33.8 °F 26.4 °F 32.0 °F 93% 29.59 in 3.7 mi WNW 9.2 mph - N/A   Mostly Cloudy
11:15 AM 33.8 °F 26.4 °F 32.0 °F 93% 29.62 in 3.7 mi WNW 9.2 mph - N/A   Mostly Cloudy
11:45 AM 33.8 °F 26.4 °F 32.0 °F 93% 29.62 in 3.7 mi West 9.2 mph - N/A   Mostly Cloudy
12:00 PM - - - N/A% - 5.0 mi WNW 9.2 mph - N/A   Mostly Cloudy
12:15 PM 35.6 °F 29.2 °F 32.0 °F 87% 29.62 in 5.0 mi WNW 8.1 mph - N/A   Mostly Cloudy
12:45 PM 35.6 °F 28.6 °F 32.0 °F 87% 29.62 in 6.2 mi WNW 9.2 mph - N/A   Mostly Cloudy
1:00 PM 35 °F - 33 °F 87% 29.65 in 6 mi WNW 8.9 mph - -   Partly Cloudy
1:15 PM 35.6 °F 28.0 °F 33.8 °F 93% 29.62 in 6.2 mi West 10.4 mph - N/A   Mostly Cloudy
1:45 PM 37.4 °F 30.3 °F 33.8 °F 87% 29.62 in 6.2 mi West 10.4 mph - N/A   Mostly Cloudy
3:45 PM 35.6 °F 31.7 °F 33.8 °F 93% 29.65 in 6.2 mi WSW 4.6 mph - N/A   Mostly Cloudy
4:15 PM 35.6 °F 32.8 °F 33.8 °F 93% 29.65 in 6.2 mi West 3.5 mph - N/A   Mostly Cloudy
4:45 PM 33.8 °F 30.8 °F 32.0 °F 93% 29.65 in - West 3.5 mph - N/A   Clear
5:15 PM 33.8 °F 27.7 °F 33.8 °F 100% 29.65 in - West 6.9 mph - N/A   Clear
5:45 PM 33.8 °F 26.4 °F 33.8 °F 100% 29.68 in - West 9.2 mph - N/A   Clear
6:15 PM 33.8 °F 27.7 °F 32.0 °F 93% 29.68 in - WNW 6.9 mph - N/A   Clear
6:45 PM 33.8 °F 27.7 °F 32.0 °F 93% 29.68 in - WNW 6.9 mph - N/A   Clear
7:00 PM 33 °F - 32 °F 94% 29.71 in 9 mi WNW 6.7 mph - -   Partly Cloudy
7:15 PM 33.8 °F 27.0 °F 32.0 °F 93% 29.68 in - WNW 8.1 mph - N/A   Clear
7:45 PM 33.8 °F 27.7 °F 32.0 °F 93% 29.68 in - NW 6.9 mph - N/A   Clear
8:15 PM 33.8 °F 27.7 °F 32.0 °F 93% 29.68 in - WNW 6.9 mph - N/A   Clear
8:45 PM 33.8 °F 27.0 °F 32.0 °F 93% 29.71 in - NW 8.1 mph - N/A   Clear
9:45 PM 33.8 °F 29.6 °F 32.0 °F 93% 29.71 in - WNW 4.6 mph - N/A   Clear
10:45 PM 33.8 °F 27.0 °F 33.8 °F 100% 29.74 in - WNW 8.1 mph - N/A   Clear
11:45 PM 33.8 °F 27.0 °F 32.0 °F 93% 29.74 in - WNW 8.1 mph - N/A   Clear